logo meteolombardia

Diretta Meteo Lugano, Svizzeralunedì 15 luglio ore 19:50

Mappa
Sereno 28 °C Poco Nuvoloso 24 Ore: T.min 18 T.max 31
Ponente Nord Km/h 5.5 Punto di rugiada: 20 °C Umidità: 61% Visibilità: 10 Km
Il sole sorge alle: 05:46 Il sole tramonta alle: 21:13
15 Luglio 2024 19:50 tempo osservato: Poco Nuvoloso Poco Nuvoloso 28 61 1013 vento: Nord N 5.5
15 Luglio 2024 19:20 tempo osservato: Nuvoloso Nuvoloso 30 48 1013 vento: Nord N 5.5
15 Luglio 2024 18:50 tempo osservato: Nuvoloso Nuvoloso 30 48 1013 vento: Nord S/SO 9.3
15 Luglio 2024 18:20 tempo osservato: Poco Nuvoloso Poco Nuvoloso 30 48 1013 vento: Nord S/SO 9.3
15 Luglio 2024 17:50 tempo osservato: Poco Nuvoloso Poco Nuvoloso 31 45 1013 vento: Nord S 11.1
15 Luglio 2024 17:20 tempo osservato: Poco Nuvoloso Poco Nuvoloso 31 48 1013 vento: Nord S/SO 9.3
15 Luglio 2024 16:50 tempo osservato: Poco Nuvoloso Poco Nuvoloso 31 45 1013 vento: Nord S/SO 11.1
15 Luglio 2024 16:20 tempo osservato: Poco Nuvoloso Poco Nuvoloso 31 45 1013 vento: Nord S 7.4
15 Luglio 2024 15:50 tempo osservato: Poco Nuvoloso Poco Nuvoloso 31 48 1014 vento: Nord S/SO 9.3
15 Luglio 2024 15:20 tempo osservato: Poco Nuvoloso Poco Nuvoloso 30 48 1014 vento: Nord S 9.3
15 Luglio 2024 14:50 tempo osservato: Poco Nuvoloso Poco Nuvoloso 30 51 1014 vento: Nord S 9.3
15 Luglio 2024 14:20 tempo osservato: Poco Nuvoloso Poco Nuvoloso 30 48 1014 vento: Nord S 7.4
15 Luglio 2024 13:50 tempo osservato: Poco Nuvoloso Poco Nuvoloso 29 54 1014 vento: Nord S 11.1
15 Luglio 2024 13:20 tempo osservato: Poco Nuvoloso Poco Nuvoloso 29 54 1015 vento: Nord S 9.3
15 Luglio 2024 12:50 tempo osservato: Sereno Sereno 29 54 1015 vento: Nord S 7.4
15 Luglio 2024 12:20 tempo osservato: Sereno Sereno 28 61 1015 vento: Nord S 7.4
15 Luglio 2024 11:50 tempo osservato: Sereno Sereno 27 61 1015 vento: Nord N 5.5
15 Luglio 2024 11:20 tempo osservato: Sereno Sereno 26 61 1015 vento: Nord S 7.4
15 Luglio 2024 10:50 tempo osservato: Sereno Sereno 26 61 1015 vento: Nord N 5.5
15 Luglio 2024 10:20 tempo osservato: Sereno Sereno 26 61 1015 vento: Nord N 3.7
15 Luglio 2024 09:50 tempo osservato: Sereno Sereno 24 73 1015 vento: Nord N 1.8
15 Luglio 2024 09:20 tempo osservato: Sereno Sereno 23 73 1015 vento: Nord N 1.8
15 Luglio 2024 08:50 tempo osservato: Sereno Sereno 23 73 1015 vento: Nord N 1.8
15 Luglio 2024 08:20 tempo osservato: Sereno Sereno 23 78 1015 vento: Nord N 1.8
15 Luglio 2024 07:50 tempo osservato: Sereno Sereno 19 88 1015 vento: Nord N 1.8
15 Luglio 2024 07:20 tempo osservato: Sereno Sereno 19 88 1015 vento: Nord N 1.8
15 Luglio 2024 06:50 tempo osservato: Sereno Sereno 18 93 1015 vento: Nord N 5.5
15 Luglio 2024 06:20 tempo osservato: Sereno Sereno 18 93 1015 vento: Nord N 1.8
15 Luglio 2024 05:50 tempo osservato: Sereno Sereno 18 93 1015 vento: Nord N 5.5
15 Luglio 2024 05:20 tempo osservato: Sereno Sereno 18 93 1014 vento: Nord N 1.8
15 Luglio 2024 04:50 tempo osservato: Sereno Sereno 18 93 1014 vento: Nord N 1.8
15 Luglio 2024 04:20 tempo osservato: Sereno Sereno 18 93 1014 vento: Nord N 1.8
15 Luglio 2024 03:50 tempo osservato: Sereno Sereno 18 93 1014 vento: Nord N 1.8
15 Luglio 2024 03:20 tempo osservato: Sereno Sereno 19 88 1014 vento: Nord N 3.7
15 Luglio 2024 02:50 tempo osservato: Sereno Sereno 18 93 1014 vento: Nord N 3.7
15 Luglio 2024 02:20 tempo osservato: Sereno Sereno 19 88 1015 vento: Nord N 1.8
15 Luglio 2024 01:50 tempo osservato: Sereno Sereno 19 93 1015 vento: Nord N 1.8
15 Luglio 2024 01:20 tempo osservato: Sereno Sereno 19 88 1015 vento: Nord N 1.8
15 Luglio 2024 00:50 tempo osservato: Sereno Sereno 20 88 1015 vento: Nord N 3.7
15 Luglio 2024 00:20 tempo osservato: Sereno Sereno 20 88 1015 vento: Nord N 0
14 Luglio 2024 23:50 tempo osservato: Sereno Sereno 21 82 1014 vento: Nord N 1.8
14 Luglio 2024 23:20 tempo osservato: Sereno Sereno 21 82 1014 vento: Nord N 1.8
14 Luglio 2024 22:50 tempo osservato: Sereno Sereno 22 78 1014 vento: Nord N 3.7
14 Luglio 2024 22:20 tempo osservato: Sereno Sereno 22 78 1014 vento: Nord N 3.7
14 Luglio 2024 21:50 tempo osservato: Sereno Sereno 22 78 1014 vento: Nord N 5.5
14 Luglio 2024 21:20 tempo osservato: Sereno Sereno 23 73 1014 vento: Nord N 5.5
14 Luglio 2024 20:50 tempo osservato: Sereno Sereno 23 83 1013 vento: Nord N 5.5